Wind_Speed
19 18 18 18 18 17 17 17 18 17 17 17 16 15 15 15 15 16 17 17 18 18 18 18 17 16 15 15 17 21 22 24 26 27 26 25 25 25 26 28 28 28 27 26 26 25 24 24 25 26 26 25 25 24 23 22 21 20 19 18 18 17 17 17 17 17 17 17 16 16 15 15 14 13 12 11 10 9 8 8 7 7 6 6 5
18 17 17 17 17 17 16 16 17 17 17 16 16 15 14 14 14 15 16 16 16 17 17 17 17 17 16 15 15 18 21 23 25 26 25 25 25 24 24 26 28 29 29 28 27 26 25 25 25 26 26 26 26 26 26 25 24 22 21 20 19 19 18 18 18 18 18 17 17 16 16 15 14 14 13 12 11 11 10 9 9 8 8 8 7
18 18 17 16 16 16 15 15 16 16 16 16 15 14 14 13 13 14 14 14 15 15 16 16 17 17 16 16 15 17 20 23 24 25 26 26 26 25 24 25 27 29 30 29 28 28 27 26 26 26 25 25 26 27 27 27 26 25 23 22 21 21 20 19 19 19 18 18 17 17 16 15 15 14 14 13 12 12 12 11 11 10 10 10 9
18 18 17 15 15 15 14 14 14 15 16 16 14 13 13 13 13 13 13 13 14 15 15 15 16 16 16 16 17 18 20 22 24 25 26 26 26 26 25 24 26 29 30 30 29 29 29 28 27 26 25 25 26 26 27 28 28 27 26 24 23 22 21 21 21 20 19 19 18 18 17 16 15 15 15 14 14 13 13 13 13 13 12 12 11
17 17 16 14 14 14 14 13 13 14 15 15 15 13 13 13 13 13 13 14 15 16 15 15 16 16 16 16 17 19 21 23 24 25 26 26 26 26 25 25 26 28 30 30 30 30 30 29 29 27 26 25 25 26 26 27 28 29 29 27 25 24 23 23 23 23 22 21 20 19 18 17 17 16 16 16 15 15 15 15 15 15 15 14 14
17 16 14 13 14 14 14 13 14 15 15 15 15 14 14 14 14 14 14 15 16 17 17 16 16 17 16 17 17 18 20 23 25 25 25 25 25 26 27 26 25 27 29 30 30 30 30 30 30 30 28 26 25 25 25 26 27 28 29 30 29 27 25 24 24 25 24 24 23 22 20 19 18 18 18 18 17 17 17 17 17 17 17 17 16
16 15 13 13 13 14 14 14 15 16 16 16 15 15 15 14 14 14 14 15 17 18 18 17 17 17 17 17 17 18 18 20 23 25 25 25 26 27 27 27 27 27 28 30 31 31 30 30 29 30 30 29 27 26 25 25 26 27 28 30 30 30 28 26 26 26 26 26 26 24 23 22 20 20 20 20 19 19 19 19 19 19 20 19 19
15 13 12 13 14 15 15 15 16 16 16 16 16 16 15 15 15 14 15 16 17 18 18 17 17 17 17 16 16 16 16 17 19 22 24 26 27 28 28 28 28 28 28 29 30 31 31 31 30 29 29 29 29 28 27 26 26 26 27 28 30 30 30 29 28 28 28 28 28 27 26 25 23 22 22 22 22 21 21 20 21 21 22 22 22
14 13 13 13 14 15 16 16 16 17 17 17 17 16 16 16 15 15 16 16 17 17 17 16 16 16 16 16 16 16 16 17 18 19 21 23 25 27 28 28 28 29 29 29 29 30 31 32 31 30 29 29 29 29 29 29 28 27 26 27 28 29 30 30 31 30 29 29 29 29 29 28 27 25 24 24 24 24 23 22 22 22 22 22 22
14 14 13 14 15 15 16 16 17 17 17 17 18 17 17 17 16 16 16 16 17 17 16 16 15 16 17 17 18 18 18 18 18 18 19 20 22 24 26 27 28 28 29 29 30 31 32 32 32 32 31 31 31 30 30 31 31 29 27 27 28 28 28 29 30 31 31 30 30 31 31 30 29 28 27 26 26 26 25 24 23 22 21 21 21
14 14 14 14 15 15 16 16 16 16 17 17 18 17 17 17 17 16 16 16 16 16 16 16 16 16 17 17 18 19 20 20 19 19 19 19 20 22 23 25 26 27 28 29 29 30 32 33 33 33 33 32 32 32 31 31 32 32 30 29 28 27 27 28 29 30 30 31 31 31 32 32 31 30 29 28 27 27 27 26 25 24 23 21 21
14 14 15 15 15 15 16 16 17 17 17 17 17 17 17 17 17 17 16 16 16 16 17 17 17 17 17 17 18 19 19 20 21 20 20 20 20 21 22 23 24 25 27 27 28 29 31 32 33 33 33 33 33 33 33 32 32 33 33 32 30 29 28 28 29 29 29 31 32 32 33 33 32 31 30 29 29 29 28 28 27 26 25 23 22
15 15 15 15 15 15 16 17 18 18 18 18 17 17 17 17 17 17 17 18 17 18 19 19 18 18 17 18 18 18 18 19 20 21 21 21 21 21 22 22 23 24 26 27 27 28 29 30 31 32 32 32 33 34 34 34 33 33 34 35 34 32 31 29 29 29 30 31 32 33 33 33 33 32 31 31 30 29 29 28 28 27 26 26 25
15 15 15 15 15 16 16 17 19 19 20 20 19 19 19 19 19 19 19 19 18 19 21 19 18 19 19 19 19 18 18 18 19 20 21 22 21 21 21 21 21 22 23 26 27 28 28 28 29 30 31 31 33 34 34 34 34 34 34 36 36 35 34 31 29 29 30 31 32 33 33 33 33 32 32 31 30 30 29 29 28 28 28 28 27
15 15 15 15 16 16 17 18 19 20 21 21 21 21 21 21 21 21 21 21 21 21 22 21 20 21 21 21 21 20 19 18 19 20 22 23 23 22 22 21 21 20 19 20 24 26 27 28 29 30 30 31 32 33 34 34 34 34 34 35 36 35 35 33 30 30 31 31 31 31 32 33 33 33 32 32 31 31 30 30 29 29 30 30 30
15 15 16 16 16 16 17 18 19 20 21 22 22 22 22 22 22 22 22 23 23 23 23 22 22 22 22 22 22 22 20 19 19 21 22 23 24 23 23 22 22 21 18 17 19 21 23 24 25 28 30 31 31 31 32 32 32 34 36 37 37 36 35 34 32 31 31 30 29 30 31 32 32 33 33 32 32 32 32 31 31 31 32 32 32
15 16 16 16 16 17 17 18 19 19 20 21 22 22 22 22 23 23 23 24 24 24 24 23 23 23 22 22 23 23 22 21 21 22 23 24 24 24 24 23 22 21 20 18 18 19 19 19 20 22 24 28 31 30 30 30 29 31 33 35 36 37 37 35 33 32 31 29 28 29 29 30 31 31 31 30 30 31 32 32 32 32 32 32 32
16 16 16 16 17 17 17 18 19 19 20 20 21 22 22 23 23 23 23 24 24 24 24 24 24 23 23 23 23 24 23 23 23 23 23 24 25 25 24 23 23 22 21 20 19 19 19 19 20 18 19 24 27 28 29 28 28 29 30 30 31 33 35 35 34 33 33 32 30 29 28 28 28 29 28 27 28 29 30 31 31 31 31 31 31
17 16 15 16 17 17 18 18 19 19 20 20 21 21 21 22 22 22 23 23 24 24 24 24 24 24 23 23 23 24 24 24 24 24 24 24 24 24 23 23 23 23 22 21 20 20 19 20 20 17 18 23 25 27 28 28 28 29 30 30 28 28 31 33 34 34 34 35 33 32 30 27 27 26 26 26 26 26 27 28 30 30 30 30 30
17 16 15 15 15 16 17 18 18 19 19 20 20 20 20 20 21 21 22 22 22 23 23 23 24 23 23 23 23 24 24 24 25 24 24 24 24 23 23 24 24 23 23 21 21 21 21 21 21 20 21 23 24 25 26 26 26 26 28 31 29 28 30 31 33 35 35 35 35 33 30 29 28 27 26 25 24 24 25 26 27 28 28 28 28
17 16 16 15 15 15 16 17 17 18 18 19 19 19 19 19 19 19 20 20 21 21 22 22 23 22 22 22 23 23 23 24 24 23 22 23 24 23 23 24 25 24 24 23 23 23 21 21 21 22 22 23 24 24 24 24 23 23 26 30 30 30 32 33 34 34 34 34 34 32 30 29 30 30 29 28 25 24 25 26 27 27 26 26 26
16 16 16 15 15 15 15 15 16 16 17 17 17 18 18 18 18 18 18 18 18 19 19 20 21 21 21 21 22 22 22 24 24 22 22 23 24 24 23 24 24 25 25 25 24 24 22 22 21 22 23 24 25 25 24 24 23 23 25 28 29 31 33 35 36 35 34 34 32 30 30 30 31 31 32 31 28 27 28 28 28 28 27 27 26
16 16 15 15 15 14 15 15 15 15 15 15 16 16 16 16 16 17 17 17 17 17 18 18 19 19 20 20 20 20 21 23 23 23 24 25 25 24 23 23 24 25 26 26 25 25 24 24 24 24 24 24 25 25 25 24 23 24 25 26 28 31 33 35 36 37 38 36 32 32 34 34 34 34 34 33 30 30 31 30 29 29 29 29 28
15 16 16 16 15 15 15 15 15 15 15 14 14 14 15 15 15 15 16 16 16 16 16 17 17 18 18 19 19 19 20 21 22 23 24 24 25 25 24 24 24 24 25 25 26 26 26 26 26 26 25 24 25 25 24 23 22 23 24 25 26 29 31 32 34 36 37 37 36 37 38 39 38 37 35 33 30 30 31 30 30 31 30 30 30
15 16 16 16 16 16 15 15 15 15 14 14 14 14 14 14 14 14 14 15 15 15 15 15 16 16 17 17 18 18 19 20 21 22 23 23 24 24 24 24 25 24 24 25 25 25 25 26 26 26 26 26 26 26 26 25 25 24 24 25 26 29 30 31 32 32 33 35 36 38 38 39 40 38 35 33 32 32 33 32 31 32 31 31 31
14 16 16 16 16 16 16 16 15 15 14 14 14 14 14 14 14 14 14 14 13 13 13 13 14 14 15 15 16 17 17 18 19 20 21 22 23 23 23 24 24 25 25 25 25 25 25 25 26 27 28 29 30 30 30 30 30 29 28 27 29 30 31 32 32 32 32 33 36 38 38 38 39 38 37 36 36 37 38 37 36 35 35 35 35
14 15 16 16 16 16 15 15 14 14 13 13 13 14 15 15 15 15 14 14 13 12 12 12 12 13 13 13 14 14 15 16 17 18 19 20 21 22 22 23 23 24 24 25 25 25 25 25 26 27 29 30 31 32 32 32 32 31 30 30 30 31 32 32 32 32 33 34 35 38 39 39 39 40 40 40 40 41 41 42 42 41 40 40 41
14 14 15 15 15 14 14 13 13 13 12 12 13 14 15 16 16 16 16 15 14 13 12 12 11 11 11 12 12 13 13 14 15 16 17 18 19 20 21 21 21 22 23 23 23 23 24 24 25 26 27 28 29 29 30 31 31 31 30 30 30 31 31 31 31 31 32 33 34 35 37 38 38 38 40 41 42 42 42 42 43 44 45 45 45
14 14 15 15 14 13 13 13 12 12 12 13 13 14 15 15 16 16 16 16 15 14 13 13 12 11 10 10 11 11 12 13 13 14 15 16 16 18 19 19 20 20 20 21 21 21 22 22 23 24 24 25 26 26 27 27 28 29 29 30 30 30 31 31 31 31 31 31 30 30 32 35 36 37 39 41 42 42 41 40 41 43 45 46 46
15 15 15 14 13 13 13 13 13 13 13 13 13 14 14 15 15 15 15 15 14 14 14 13 13 12 12 11 11 11 11 12 12 13 13 14 15 15 16 17 18 18 19 19 19 19 19 20 20 21 22 22 22 23 23 24 24 25 26 27 28 29 29 30 30 30 30 29 28 27 28 31 33 35 37 37 38 38 38 38 39 40 41 42 43
16 15 15 14 14 13 13 13 13 13 13 13 13 14 14 15 15 15 15 15 15 14 14 14 14 13 13 12 12 12 12 12 13 13 14 14 15 15 15 16 17 17 17 17 17 17 18 18 18 18 19 19 20 20 20 20 20 21 22 23 24 25 26 27 28 28 27 27 26 26 26 27 29 30 32 32 32 33 33 34 35 35 36 37 37
17 17 16 15 14 14 12 12 12 13 13 13 13 14 14 14 15 15 15 15 15 15 14 14 14 14 14 13 13 13 12 13 13 13 14 15 15 16 16 16 17 17 17 17 16 16 17 17 17 17 17 18 18 18 18 18 18 18 18 19 20 21 21 22 23 24 24 25 25 25 25 25 25 26 28 29 30 30 30 30 31 31 32 32 33
18 17 16 15 13 13 11 11 11 12 12 12 13 13 13 14 14 15 15 16 16 16 15 15 14 14 14 14 14 14 14 14 14 14 14 15 16 16 17 17 17 18 18 18 17 16 17 17 17 17 17 17 18 18 17 17 17 17 17 17 18 18 19 19 20 21 22 22 23 23 23 24 24 24 25 26 27 28 28 27 27 27 28 28 29
17 17 16 15 14 14 13 12 13 13 14 14 14 14 14 14 13 14 15 16 17 17 17 16 15 15 15 15 16 17 17 17 17 16 16 16 16 17 18 18 19 19 19 19 19 18 17 17 17 17 17 18 18 18 18 18 18 18 18 18 19 19 19 20 20 20 21 21 22 22 23 24 24 24 25 25 26 26 27 27 26 26 25 26 26
18 18 17 17 18 18 17 16 17 17 18 19 19 18 17 16 15 15 15 16 17 18 18 19 18 18 17 17 18 19 20 20 21 20 19 18 17 18 19 19 20 20 20 20 20 20 20 19 19 19 19 19 19 19 19 20 20 20 20 20 21 21 22 22 22 22 22 22 23 23 24 24 25 25 26 26 26 27 27 28 28 27 27 27 27
18 19 20 20 21 21 20 19 19 19 20 21 22 21 20 19 19 19 18 18 18 19 19 19 19 19 19 19 19 20 21 22 23 23 22 21 20 19 19 19 20 21 21 22 22 22 22 21 21 21 21 21 21 21 21 21 22 22 22 23 23 23 24 24 25 25 25 25 26 26 26 26 27 27 28 28 29 29 29 29 29 29 29 29 29
19 19 21 21 21 22 21 20 20 20 20 21 21 22 21 20 19 19 19 20 20 20 20 20 20 20 20 20 21 21 22 22 23 23 23 23 22 21 21 20 21 21 22 22 22 23 23 23 22 23 23 23 22 22 23 23 23 24 24 25 25 26 26 27 27 27 28 28 29 29 29 29 30 30 31 31 31 32 32 32 32 32 32 32 32
20 20 20 19 20 22 21 20 21 21 21 21 20 21 22 19 17 16 17 18 19 20 20 20 20 20 20 21 21 21 21 21 22 22 23 23 23 24 24 24 23 23 24 24 24 24 24 24 24 24 24 24 24 24 24 24 24 25 25 26 26 27 28 29 29 29 30 30 31 31 32 32 33 33 33 34 34 34 34 35 35 35 35 36 35
22 22 21 20 20 21 20 20 22 23 22 22 22 22 22 20 18 18 19 19 20 20 20 20 20 21 22 22 22 22 22 22 22 23 23 23 23 24 26 27 27 27 27 27 27 27 27 27 27 28 27 27 27 26 26 26 26 26 27 27 28 29 29 30 31 31 32 31 32 32 33 33 34 35 35 36 36 36 36 37 37 37 37 38 38
20 21 22 22 22 22 21 22 24 24 24 25 25 25 24 23 23 25 25 25 24 24 24 24 23 23 24 25 26 26 26 26 26 26 25 25 25 25 26 27 28 29 30 30 30 30 30 30 31 31 32 32 32 31 30 30 30 30 30 30 31 32 33 33 34 34 34 34 34 34 35 35 35 36 36 37 37 37 37 38 38 38 39 39 39
21 21 22 24 26 28 29 29 29 29 29 29 29 29 29 30 31 31 31 31 30 29 29 29 29 29 28 29 29 30 31 31 31 31 31 30 30 29 28 28 28 29 30 31 32 33 33 34 34 35 35 36 36 35 35 35 35 35 35 35 36 36 37 38 39 39 39 39 38 38 39 39 39 39 39 39 39 39 39 39 39 40 40 40 40
27 28 28 29 30 31 32 31 31 32 32 33 33 34 35 37 37 36 37 37 36 34 33 33 33 34 34 34 34 34 35 35 35 36 36 36 36 35 34 33 32 32 33 34 35 36 37 38 39 39 40 40 40 40 40 40 40 40 41 41 42 43 43 43 42 43 44 44 43 42 43 43 43 43 43 43 43 43 43 43 43 43 43 42 42
30 31 32 32 31 31 31 31 31 31 32 33 34 35 37 38 39 39 39 40 39 37 36 36 36 37 38 38 39 38 38 38 38 39 40 40 40 40 39 39 38 38 38 39 40 40 41 42 42 43 44 45 45 45 45 45 45 45 46 47 48 48 49 48 46 46 47 48 47 45 46 47 48 47 47 48 48 48 47 47 47 47 46 46 46
32 32 32 32 32 31 32 32 33 33 34 35 36 36 36 36 37 36 36 36 35 35 36 36 37 38 39 40 40 41 41 41 41 42 43 43 42 43 43 43 42 42 42 43 43 44 43 44 44 45 46 47 48 49 49 49 49 50 51 52 52 52 53 53 52 49 49 50 50 49 48 51 52 52 51 52 52 52 52 52 51 51 51 50 49
34 34 34 35 34 33 33 33 34 35 36 36 36 36 36 36 36 35 35 34 35 35 36 36 37 37 38 39 40 41 41 42 43 44 45 45 46 46 46 46 46 46 46 46 46 46 45 46 46 47 47 49 51 51 52 52 53 54 54 55 55 56 55 56 55 54 52 52 53 52 50 52 55 55 54 56 56 55 55 55 55 55 55 54 53
37 37 37 38 37 36 35 35 36 36 37 37 37 38 38 37 37 37 37 37 37 37 37 38 38 38 38 39 40 41 42 43 43 44 45 46 47 48 48 48 49 49 49 49 49 49 48 47 47 47 49 51 53 53 53 53 54 55 55 55 56 56 56 57 57 57 56 55 56 56 53 53 55 55 56 58 59 59 59 58 58 58 58 58 57
39 39 39 39 39 39 39 39 39 39 39 40 40 40 40 39 39 40 40 40 40 40 41 40 40 40 40 40 40 41 42 43 44 45 46 46 47 48 49 49 50 50 51 51 51 50 49 49 48 48 50 52 52 53 53 54 55 55 55 56 56 56 56 57 57 58 58 59 60 61 59 57 57 57 57 59 60 61 62 62 61 62 62 61 61
42 42 42 42 42 42 43 43 43 43 42 42 42 42 42 42 42 42 43 43 43 43 43 43 43 43 43 42 41 41 42 43 44 45 46 46 47 48 49 49 50 50 51 51 51 51 50 50 50 50 52 52 53 54 55 55 56 57 57 57 58 58 59 59 59 60 61 62 63 64 64 62 62 62 60 61 61 62 64 64 65 65 64 64 64
43 44 44 45 45 45 45 45 45 44 44 44 43 43 44 44 44 44 44 44 44 44 44 45 45 45 44 44 44 43 43 43 43 44 45 46 46 47 48 49 49 50 50 51 51 51 51 52 52 53 54 54 55 57 58 59 60 60 61 61 62 62 63 63 64 64 65 66 67 67 67 66 66 66 64 64 63 64 65 66 67 67 67 67 67
44 44 44 45 45 45 45 45 45 45 44 44 44 44 45 45 46 45 45 45 45 45 45 45 45 45 45 45 45 44 43 43 43 44 44 45 46 46 47 48 49 49 50 50 51 52 52 53 54 54 55 56 57 59 60 61 62 63 64 65 65 66 66 66 67 67 67 67 68 69 68 67 67 68 67 66 66 65 66 68 68 69 69 69 69
46 45 44 44 44 44 45 45 45 45 45 45 46 46 47 47 47 47 47 46 46 46 46 46 46 45 45 45 45 44 44 43 43 43 44 44 45 45 46 46 47 48 48 49 50 50 51 52 53 54 54 55 57 58 60 61 63 64 65 65 66 67 67 68 68 68 68 67 68 69 68 67 67 68 68 68 67 66 67 68 69 70 71 71 71
Wind_Direction
278 277 275 272 268 266 263 259 256 257 258 256 253 250 245 242 242 245 247 250 254 256 256 255 254 252 249 244 238 234 235 235 236 239 243 247 248 245 240 239 241 243 244 246 249 252 253 253 253 253 253 254 257 259 260 261 260 258 255 252 251 249 246 243 243 243 244 244 244 245 247 248 248 248 249 251 252 255 261 268 277 287 296 304 310
276 274 270 267 265 263 261 258 255 255 257 255 252 249 245 241 240 242 244 248 252 255 256 255 254 253 250 245 238 234 234 234 235 239 242 245 246 246 243 241 242 243 243 244 247 250 251 251 252 253 252 253 254 256 258 259 259 259 257 255 254 253 251 249 246 245 246 247 247 247 248 250 252 253 253 254 254 256 258 262 267 275 282 289 295
273 270 266 262 261 260 258 257 255 254 256 256 254 252 247 241 240 242 244 247 252 255 255 255 253 251 249 244 239 235 234 234 235 237 240 243 243 243 242 240 240 242 245 245 247 249 251 251 252 253 253 253 253 254 256 258 259 259 259 258 256 256 256 255 253 250 248 249 250 251 251 251 252 255 256 256 257 258 260 262 266 269 273 278 283
272 268 263 260 259 256 254 253 252 252 253 254 253 250 246 242 241 242 244 246 250 253 253 253 252 249 245 242 240 237 236 235 236 237 239 241 241 241 241 239 237 239 243 246 248 250 251 251 252 253 254 254 254 254 255 257 259 260 260 259 258 258 259 260 260 258 255 251 251 252 253 253 252 253 255 256 257 260 262 265 267 270 272 275 278
270 267 263 261 259 255 250 246 245 247 249 251 249 244 241 242 242 240 240 241 246 249 249 249 250 249 245 241 240 240 238 237 236 239 240 241 242 241 241 240 238 237 239 244 248 250 250 252 253 253 254 255 256 256 256 256 257 259 260 260 259 259 259 261 262 262 260 256 253 253 253 254 254 255 255 256 258 261 264 267 269 271 273 274 275
271 272 269 266 264 259 251 244 240 242 244 245 245 241 237 237 239 239 239 240 243 247 249 250 252 251 249 246 243 242 242 238 236 238 241 244 244 243 242 241 241 240 239 240 243 246 248 251 253 252 253 254 256 257 258 258 257 257 258 259 260 259 259 259 260 261 261 259 257 256 254 254 255 256 257 258 259 261 264 267 269 271 272 273 273
273 275 276 273 268 262 255 246 241 240 241 241 240 238 235 234 236 240 242 242 244 247 250 254 255 255 253 251 247 244 243 239 234 234 239 243 245 245 244 242 242 241 241 241 241 243 246 249 251 252 251 251 253 256 257 258 258 257 257 258 258 259 259 258 258 258 258 259 259 258 257 256 256 256 258 260 260 261 263 266 268 270 272 273 273
274 272 273 271 267 262 256 248 243 241 241 240 238 237 236 237 239 242 243 244 246 248 251 254 255 254 254 250 247 243 241 239 235 233 236 240 244 246 246 244 243 242 241 241 242 242 245 247 249 250 251 251 252 253 254 255 257 257 256 256 257 257 258 258 257 257 256 257 258 258 258 259 259 258 258 260 262 262 263 266 268 270 271 272 273
277 275 272 269 266 262 256 251 246 243 241 238 237 236 237 239 241 243 243 244 246 249 252 253 252 251 250 247 244 243 241 239 238 236 236 238 241 245 247 246 245 244 243 243 242 243 244 246 248 249 250 251 253 253 253 252 253 255 255 255 256 257 257 258 257 257 256 256 256 257 259 260 261 260 259 260 262 263 264 266 268 269 271 272 273
278 276 273 269 265 261 257 254 249 244 239 237 237 237 236 238 240 241 243 244 245 248 250 251 251 250 248 246 244 245 246 246 244 240 238 238 241 243 246 247 247 247 246 245 244 244 244 246 247 248 250 252 254 255 255 253 251 252 253 254 255 256 257 257 257 256 256 256 256 257 258 260 261 262 261 261 262 263 263 265 267 267 268 269 271
273 273 271 269 267 265 262 259 254 248 242 239 239 237 237 238 239 240 240 243 247 250 250 250 251 251 250 247 245 246 249 251 249 244 242 242 244 246 246 247 249 249 249 249 248 247 246 246 247 248 249 251 254 256 257 256 253 250 250 252 253 254 255 256 257 257 256 255 256 256 257 259 260 262 262 261 262 262 263 264 265 265 265 266 268
267 267 267 267 267 266 264 263 259 254 248 244 240 237 237 239 241 243 243 246 250 253 254 254 254 254 253 250 248 248 249 250 249 248 246 246 248 249 249 248 249 249 249 249 249 248 247 247 247 248 250 252 254 256 257 258 256 252 250 250 252 254 255 256 258 258 257 255 254 255 255 256 258 260 262 262 261 262 262 263 263 263 263 264 266
264 264 264 265 264 262 260 261 260 257 253 250 245 241 240 242 245 249 250 251 253 256 258 259 259 260 259 257 254 251 250 249 249 248 249 250 251 252 252 251 251 253 254 252 250 249 248 248 248 250 251 252 254 256 256 257 258 256 252 251 252 254 256 257 258 260 258 255 254 254 255 255 257 259 260 261 262 262 263 263 263 263 264 265 267
264 262 262 261 261 259 256 255 256 256 255 253 250 247 245 246 248 251 254 256 256 258 261 262 262 263 261 259 257 255 253 252 250 249 251 253 254 254 255 255 255 257 259 256 252 251 250 249 250 251 252 253 253 254 255 256 257 258 257 255 254 255 256 257 259 261 261 258 255 255 255 256 256 257 259 261 263 264 264 264 264 264 265 267 269
264 262 260 258 257 256 254 253 252 252 252 252 251 250 248 248 248 250 253 256 257 258 261 262 261 261 261 261 261 260 258 255 253 249 250 253 255 256 256 256 256 257 261 256 252 253 252 251 251 253 253 252 253 253 254 255 256 256 257 257 255 254 255 256 258 260 261 261 259 257 256 256 256 257 258 260 262 264 265 266 266 266 266 268 270
264 262 259 256 253 252 251 252 252 252 253 253 253 253 252 252 252 253 254 257 258 259 261 261 260 260 261 263 263 263 260 257 255 252 250 253 256 258 258 257 256 259 264 259 253 255 256 254 252 252 253 251 251 252 252 253 254 254 254 253 251 250 250 251 254 256 258 257 257 257 256 255 256 256 257 259 261 264 266 267 266 266 267 267 269
266 263 260 257 253 250 249 249 251 252 254 255 256 256 255 255 255 255 256 257 258 258 259 260 261 260 261 262 263 264 263 259 256 253 251 252 256 258 258 258 259 260 263 261 257 256 257 257 254 255 257 253 250 248 247 246 248 252 255 254 251 249 247 245 247 251 253 254 254 255 255 255 255 255 257 258 260 263 265 265 266 266 266 267 268
268 264 261 259 257 253 250 248 249 250 252 254 256 257 257 257 257 257 257 257 258 258 259 259 260 260 259 260 262 264 265 263 261 257 255 255 256 258 259 261 262 262 263 263 262 259 258 256 256 261 263 258 252 248 248 248 249 253 256 256 255 252 247 243 244 249 252 253 254 254 254 255 256 254 255 257 258 260 261 262 264 264 265 266 266
271 266 263 261 258 255 251 248 247 248 250 252 254 256 257 259 260 260 260 260 259 260 260 259 259 259 259 259 261 262 263 265 265 263 261 259 259 259 259 261 262 262 263 263 262 261 260 259 258 255 251 255 253 248 250 252 251 254 257 257 256 251 245 241 243 248 251 252 253 255 256 255 257 256 254 254 255 258 260 262 263 263 263 263 262
273 269 266 263 260 257 253 249 246 246 247 249 250 253 255 257 259 260 261 262 262 262 262 262 261 261 261 260 260 261 262 264 263 262 263 263 263 261 259 260 261 261 261 262 262 262 263 262 260 250 243 248 251 249 252 252 251 258 262 260 254 245 240 239 241 245 249 252 253 256 258 257 257 256 255 254 254 257 260 262 263 261 261 260 260
271 269 267 265 263 260 256 252 248 245 245 246 247 249 251 252 254 256 258 260 262 263 263 264 264 264 264 263 263 263 264 264 263 263 263 262 262 261 258 258 259 259 259 260 261 261 263 263 259 252 246 247 248 250 255 253 251 256 259 259 255 245 241 241 243 246 249 253 255 255 257 257 257 255 254 255 254 254 255 256 258 259 260 261 261
271 267 265 265 265 264 262 258 254 251 248 248 248 249 250 251 253 255 257 259 261 263 265 266 267 267 268 268 268 268 268 268 268 267 266 263 261 260 258 256 256 257 257 257 259 261 263 262 259 255 251 248 247 249 252 251 252 253 254 256 254 248 244 244 246 248 250 255 257 254 254 256 258 257 254 254 253 252 252 252 256 259 260 260 261
275 271 267 264 264 263 263 261 258 255 253 252 253 254 255 255 257 259 261 263 264 266 268 269 270 271 272 272 272 272 271 271 271 269 267 267 266 265 263 260 258 257 258 258 259 261 261 260 258 258 255 251 249 249 249 249 250 250 252 254 253 250 249 250 251 252 252 254 254 253 254 257 259 260 259 257 255 253 253 254 255 258 259 259 259
279 275 270 266 263 261 260 258 257 255 254 254 256 258 259 260 261 263 264 266 268 270 271 273 274 275 275 275 275 274 272 271 271 270 268 268 269 269 269 267 265 262 261 260 259 259 259 257 255 256 256 253 251 251 250 251 253 253 252 253 255 255 255 257 258 258 255 253 252 253 258 259 257 259 259 256 254 253 254 255 254 255 257 259 258
280 277 273 269 265 262 260 257 255 254 254 255 257 259 261 262 264 266 267 269 269 271 273 275 277 277 278 278 277 276 274 273 272 271 270 269 268 268 267 268 268 266 263 261 259 258 256 254 253 253 254 253 253 252 252 254 259 261 258 254 254 256 258 260 262 263 260 256 255 258 263 262 257 255 254 252 254 257 257 256 256 256 257 258 259
286 283 277 273 270 266 263 260 258 257 257 257 258 260 261 262 263 265 267 269 271 272 274 275 276 277 278 279 278 278 277 276 275 273 272 271 270 269 267 266 266 265 264 261 260 258 255 253 252 253 253 253 254 256 257 259 260 261 260 256 253 253 256 260 262 264 263 261 261 263 266 265 256 252 251 252 257 261 260 259 259 259 260 260 262
293 292 285 279 274 269 265 262 260 260 261 262 262 263 264 264 263 263 264 266 268 271 274 275 275 275 276 276 276 276 276 276 275 274 274 273 273 273 271 270 268 267 266 264 262 260 258 255 254 253 253 254 255 258 260 262 262 261 259 257 255 254 255 258 260 261 262 262 262 262 263 263 259 253 252 255 260 264 264 262 259 259 260 262 263
292 296 290 284 278 272 267 262 259 259 259 261 263 265 266 266 266 266 265 265 266 267 270 272 275 276 276 276 276 276 276 275 275 274 273 272 273 274 274 273 272 270 269 268 266 264 262 260 258 257 256 255 256 257 258 259 260 260 259 257 256 256 256 257 258 260 262 263 264 262 261 261 260 257 255 258 264 268 269 266 263 261 261 262 263
288 291 288 284 280 275 272 267 263 261 259 259 260 261 262 263 265 266 266 267 266 267 268 269 272 274 276 277 277 278 278 277 277 276 276 274 273 274 275 275 274 274 273 272 271 269 267 265 264 263 262 262 260 259 259 259 259 259 259 259 257 257 257 258 258 259 261 263 265 265 262 259 258 258 259 261 265 268 269 269 267 264 263 263 264
284 285 281 277 276 273 272 271 270 269 266 263 261 261 261 260 261 262 263 265 266 268 269 271 273 274 276 278 279 281 282 283 284 283 282 280 278 277 276 277 277 277 276 276 274 272 270 268 267 267 267 267 267 266 264 263 261 261 261 261 260 260 259 259 259 259 260 262 264 264 262 259 258 259 261 263 265 267 268 269 269 268 268 267 267
281 280 274 269 268 269 269 271 272 271 270 267 264 262 261 262 262 261 262 262 263 265 268 270 273 276 278 280 282 284 286 288 290 291 291 290 288 286 282 280 279 278 277 276 275 274 273 270 269 268 268 268 269 270 269 267 266 263 262 262 262 261 261 260 261 261 261 263 264 263 262 261 260 261 262 264 266 267 268 270 270 270 269 269 268
275 277 273 269 269 272 272 269 267 265 265 265 265 264 262 261 262 262 263 264 265 266 268 270 273 276 279 281 284 285 287 288 289 291 292 292 292 290 288 285 282 280 279 277 276 275 274 274 272 271 270 269 269 270 270 270 269 267 265 264 264 263 262 262 262 263 263 264 265 265 265 264 263 263 264 265 266 266 266 267 268 267 267 266 266
271 277 276 271 269 271 272 270 267 265 262 262 263 264 263 261 260 261 263 264 266 267 268 270 272 275 277 278 281 282 283 285 286 288 289 290 289 288 287 284 282 280 280 279 278 276 275 274 274 274 273 272 272 272 273 273 273 273 272 270 269 267 267 266 265 265 265 265 266 266 267 267 266 265 265 265 266 266 266 266 266 267 268 268 267
268 276 278 275 269 268 272 275 276 274 272 272 270 266 262 259 258 260 262 262 263 264 265 267 268 269 270 271 274 276 279 281 282 285 287 289 289 288 285 283 280 278 277 276 275 273 271 270 270 270 270 271 272 272 273 273 273 273 273 273 272 271 270 269 269 269 268 268 268 268 268 269 269 269 269 269 269 269 270 269 269 268 268 269 269
261 268 275 275 269 266 269 273 274 274 275 274 271 269 266 262 261 263 263 261 261 260 261 263 263 263 264 266 270 274 277 279 280 281 283 284 286 285 283 282 280 278 276 274 273 272 271 270 268 268 267 267 269 270 271 272 272 273 273 273 273 274 274 274 274 273 273 272 272 271 271 271 271 271 272 272 272 273 274 274 274 273 272 271 271
262 266 271 272 270 267 267 272 275 277 280 276 272 270 267 264 265 265 262 260 258 258 258 259 261 262 264 267 270 273 275 277 277 277 277 278 279 279 280 280 279 278 276 274 272 271 270 269 268 268 267 266 266 267 268 269 271 272 273 274 274 274 275 276 276 277 277 277 276 276 275 274 274 274 274 274 274 274 274 275 276 276 275 275 274
264 267 268 267 269 270 270 276 280 281 282 279 273 267 262 264 269 268 263 259 256 255 255 256 259 262 266 269 271 273 274 273 272 272 271 272 274 274 275 275 275 275 274 274 273 272 271 269 266 265 265 264 263 263 264 265 266 267 268 269 271 271 272 272 272 273 273 274 275 276 276 276 275 275 275 275 275 275 275 275 275 276 276 275 274
264 266 265 261 262 267 270 273 274 274 274 273 267 260 259 264 270 270 268 265 259 256 256 257 259 261 263 265 268 270 271 269 267 266 268 271 273 274 274 273 273 272 272 272 272 272 272 270 268 266 264 263 261 260 260 261 262 263 263 264 265 265 267 268 269 269 268 268 269 270 271 271 272 272 272 272 273 273 274 274 275 275 276 276 275
263 262 262 257 256 262 267 267 267 267 268 269 267 263 261 263 266 271 275 272 267 264 263 262 261 261 261 262 263 265 266 265 263 262 264 269 273 274 275 275 274 273 272 272 272 272 272 272 272 271 270 268 265 262 260 260 261 263 265 266 266 266 265 266 267 268 268 267 267 267 267 268 268 269 269 269 269 269 269 270 270 271 272 273 274
261 257 258 257 256 261 266 268 267 266 265 266 266 265 262 264 271 277 277 274 272 271 270 268 266 265 265 265 264 264 264 264 263 261 261 264 268 271 272 273 273 273 272 272 272 273 273 273 273 274 273 273 271 270 268 266 266 267 269 271 272 273 273 272 271 270 270 269 269 269 268 268 268 268 268 268 268 268 267 267 267 267 267 267 268
261 256 257 258 260 265 270 272 269 266 264 263 262 262 262 266 274 278 276 274 274 272 270 270 270 270 270 269 269 268 267 266 266 265 264 265 267 268 268 269 270 270 271 271 272 273 274 275 275 275 274 273 272 271 271 271 271 272 273 274 275 276 276 276 276 275 275 273 272 272 271 270 269 269 269 269 268 268 268 267 267 266 265 265 265
263 261 261 262 264 269 272 272 268 265 264 264 263 264 265 269 274 275 274 273 273 271 270 270 270 271 271 271 271 271 271 271 270 270 269 268 268 268 267 266 265 265 266 267 268 269 271 272 273 274 273 273 272 271 270 270 271 271 271 272 273 274 275 274 274 274 275 275 274 273 272 271 270 269 270 270 270 269 269 268 267 266 265 265 264
265 263 263 264 267 269 270 269 267 266 267 268 269 269 270 272 274 274 273 272 271 271 271 272 271 271 271 271 271 272 272 272 273 272 272 271 270 270 269 268 267 265 264 264 264 265 267 269 270 271 272 271 271 270 269 268 268 269 269 270 271 272 273 273 273 271 271 273 273 271 271 272 271 270 270 270 270 270 270 269 268 267 267 266 265
269 266 263 262 264 265 265 266 267 268 270 272 273 273 273 272 272 272 270 270 270 271 272 273 273 272 272 272 272 272 272 272 272 272 272 271 271 271 270 269 269 267 266 265 264 264 265 267 268 270 270 270 269 268 267 266 266 266 267 268 269 269 270 271 272 271 269 270 272 270 269 270 271 271 271 271 270 270 270 269 269 268 267 267 266
268 265 262 261 262 264 265 266 267 268 269 271 271 272 271 270 269 270 270 271 271 272 272 272 272 272 273 273 273 273 272 272 271 270 271 271 270 270 270 270 269 269 268 267 266 265 265 265 265 266 268 268 267 267 267 267 266 265 265 266 267 268 268 268 270 270 269 270 271 270 268 268 269 270 270 270 270 270 269 268 268 268 267 267 267
265 263 262 263 265 268 271 272 271 270 270 269 269 270 271 271 271 272 273 273 274 274 274 273 273 273 273 274 273 273 273 272 272 271 271 271 271 271 271 271 271 271 271 270 269 269 268 267 266 266 266 265 265 266 267 267 267 266 266 266 266 267 267 267 268 269 270 270 271 270 268 267 267 267 268 269 269 269 268 268 267 267 266 266 266
267 267 266 267 269 271 274 274 274 273 271 271 271 271 272 273 275 276 276 277 277 278 278 277 277 277 277 276 274 273 271 271 271 271 271 271 271 272 272 273 273 273 273 273 272 272 271 270 269 268 267 266 267 267 268 268 268 267 267 267 267 266 266 267 267 268 270 270 271 271 270 269 268 267 266 266 267 267 268 268 267 266 266 265 265
269 270 270 270 271 273 274 274 273 273 272 271 272 272 273 274 276 277 278 278 278 279 279 280 280 280 280 279 277 274 271 270 269 269 270 270 271 271 272 273 273 273 273 273 273 273 273 272 271 269 269 269 270 269 269 269 269 269 268 268 268 267 267 267 268 269 270 270 271 271 270 270 270 269 267 265 264 265 266 267 267 266 266 266 265
270 270 270 270 271 272 272 273 273 273 273 273 273 274 275 276 277 278 278 278 278 279 279 280 280 280 280 280 279 277 274 272 270 269 269 269 269 269 270 270 271 271 272 272 273 272 272 271 270 270 269 269 269 269 269 269 269 269 269 269 268 268 268 268 268 268 269 269 270 270 270 270 269 269 267 265 264 263 264 265 265 266 266 266 265
269 270 270 270 270 271 272 272 273 273 274 274 275 276 277 279 280 280 280 280 280 280 280 280 280 279 279 279 278 278 276 274 273 271 270 270 269 269 269 270 270 271 271 271 272 272 272 271 271 271 270 270 269 269 269 269 269 269 269 269 269 268 268 268 268 268 268 268 269 269 268 268 268 267 266 265 263 263 263 263 264 264 265 265 265
267 268 270 271 271 271 272 273 273 274 275 276 278 279 280 281 281 281 281 281 281 281 281 280 280 279 279 278 278 277 277 275 274 273 272 272 271 271 271 271 271 272 272 272 273 273 273 273 273 273 272 271 270 270 270 269 270 270 269 269 269 269 269 269 269 268 268 268 268 268 268 267 267 266 266 264 263 262 262 263 263 263 264 264 265
Height
5798 5798 5798 5798 5798 5798 5798 5798 5798 5798 5799 5800 5800 5801 5802 5803 5803 5804 5804 5804 5805 5806 5807 5808 5810 5811 5813 5814 5815 5815 5815 5815 5816 5817 5818 5819 5820 5821 5822 5823 5823 5824 5825 5826 5827 5828 5829 5831 5832 5833 5834 5835 5836 5837 5839 5840 5841 5842 5843 5844 5844 5845 5846 5847 5848 5848 5849 5849 5850 5851 5851 5852 5852 5853 5854 5854 5854 5855 5855 5855 5855 5856 5856 5856 5856
5796 5796 5796 5796 5796 5796 5796 5796 5797 5796 5797 5798 5799 5799 5800 5801 5801 5802 5802 5803 5803 5804 5805 5806 5808 5809 5810 5811 5812 5813 5813 5813 5814 5815 5816 5817 5818 5818 5820 5821 5822 5822 5823 5824 5825 5826 5827 5828 5829 5830 5832 5833 5834 5835 5836 5837 5839 5840 5841 5842 5843 5844 5844 5845 5846 5847 5848 5848 5849 5849 5850 5851 5851 5852 5852 5853 5853 5853 5854 5854 5854 5854 5855 5855 5855
5795 5795 5794 5794 5794 5794 5794 5794 5795 5795 5795 5796 5797 5798 5798 5799 5799 5800 5801 5801 5802 5802 5803 5804 5805 5806 5808 5809 5810 5811 5811 5812 5812 5813 5814 5814 5815 5816 5817 5818 5819 5820 5821 5822 5823 5824 5825 5826 5827 5828 5829 5830 5832 5833 5834 5835 5836 5838 5839 5840 5841 5842 5843 5844 5845 5845 5846 5847 5847 5848 5849 5849 5850 5850 5851 5851 5851 5852 5852 5852 5853 5853 5853 5854 5854
5794 5793 5793 5792 5792 5792 5792 5792 5793 5793 5794 5795 5795 5796 5797 5797 5798 5799 5799 5800 5800 5801 5801 5802 5803 5804 5806 5807 5808 5808 5809 5810 5810 5811 5811 5812 5813 5813 5814 5815 5817 5818 5819 5820 5821 5822 5823 5824 5825 5826 5827 5828 5829 5830 5832 5833 5834 5835 5836 5838 5839 5840 5841 5842 5843 5844 5845 5846 5846 5847 5847 5848 5848 5849 5849 5849 5850 5850 5850 5851 5851 5851 5852 5852 5852
5792 5791 5792 5791 5790 5790 5790 5790 5791 5791 5792 5793 5793 5794 5795 5796 5796 5797 5798 5798 5799 5799 5800 5800 5801 5802 5803 5804 5805 5806 5807 5807 5808 5808 5809 5810 5810 5811 5812 5813 5814 5815 5817 5818 5819 5820 5821 5822 5823 5823 5825 5826 5826 5828 5829 5830 5831 5833 5834 5835 5837 5838 5839 5840 5840 5841 5842 5843 5844 5845 5846 5846 5846 5847 5847 5848 5848 5848 5848 5849 5849 5849 5850 5850 5851
5790 5790 5791 5790 5789 5788 5788 5789 5789 5789 5790 5790 5791 5792 5793 5794 5794 5795 5796 5797 5797 5798 5798 5799 5799 5800 5801 5802 5803 5804 5804 5805 5806 5806 5807 5808 5809 5809 5810 5811 5812 5813 5814 5815 5816 5817 5818 5819 5820 5821 5822 5823 5824 5825 5826 5827 5829 5830 5831 5832 5833 5835 5836 5837 5838 5839 5840 5841 5842 5843 5844 5844 5844 5845 5845 5846 5846 5846 5846 5847 5847 5847 5848 5848 5849
5788 5789 5789 5789 5788 5788 5788 5788 5787 5787 5788 5788 5789 5790 5791 5792 5793 5794 5794 5795 5796 5796 5797 5798 5798 5798 5799 5799 5800 5801 5802 5802 5803 5804 5805 5806 5806 5807 5807 5809 5810 5811 5811 5812 5813 5815 5815 5816 5817 5818 5819 5820 5821 5822 5824 5824 5825 5827 5828 5829 5830 5831 5833 5834 5835 5836 5837 5838 5839 5840 5841 5842 5842 5843 5843 5843 5844 5844 5844 5845 5845 5845 5846 5846 5847
5787 5788 5788 5787 5787 5787 5787 5787 5787 5786 5786 5786 5787 5788 5789 5790 5791 5792 5793 5793 5794 5795 5796 5796 5796 5797 5797 5797 5798 5799 5800 5800 5801 5802 5803 5803 5804 5804 5805 5806 5807 5808 5809 5810 5811 5812 5813 5814 5815 5816 5816 5818 5819 5820 5821 5822 5822 5823 5825 5825 5826 5828 5829 5831 5832 5833 5834 5835 5836 5837 5838 5839 5840 5840 5841 5841 5841 5841 5842 5842 5843 5843 5843 5844 5844
5785 5786 5786 5786 5786 5786 5786 5786 5786 5786 5785 5785 5785 5786 5787 5789 5790 5791 5791 5792 5793 5793 5794 5794 5795 5795 5795 5796 5796 5797 5798 5798 5799 5800 5800 5801 5802 5802 5803 5804 5805 5805 5806 5807 5808 5809 5810 5811 5812 5813 5814 5815 5816 5817 5818 5819 5819 5820 5821 5822 5823 5824 5826 5827 5828 5829 5831 5832 5833 5834 5834 5835 5836 5837 5838 5838 5838 5839 5839 5840 5841 5841 5841 5842 5842
5783 5784 5784 5785 5785 5785 5786 5785 5785 5785 5784 5784 5783 5784 5785 5787 5788 5789 5790 5791 5791 5791 5792 5792 5793 5793 5794 5794 5794 5795 5796 5796 5797 5798 5798 5799 5799 5800 5800 5801 5802 5803 5803 5804 5805 5806 5807 5808 5809 5810 5811 5812 5813 5814 5815 5816 5816 5817 5818 5819 5820 5821 5822 5823 5824 5825 5827 5828 5829 5830 5831 5832 5833 5833 5834 5835 5835 5836 5837 5837 5838 5839 5839 5839 5840
5782 5782 5783 5784 5784 5784 5785 5784 5784 5784 5783 5783 5783 5783 5784 5785 5786 5787 5788 5789 5789 5790 5790 5790 5791 5791 5792 5792 5793 5793 5794 5794 5795 5796 5796 5796 5797 5798 5798 5798 5799 5800 5801 5801 5803 5803 5804 5805 5806 5807 5808 5809 5810 5811 5812 5812 5813 5814 5815 5816 5817 5818 5819 5820 5821 5822 5823 5824 5825 5826 5827 5828 5829 5830 5831 5832 5833 5833 5834 5835 5835 5836 5837 5837 5837
5781 5781 5781 5782 5783 5783 5784 5783 5783 5783 5783 5782 5782 5782 5782 5783 5784 5785 5786 5787 5788 5788 5788 5788 5788 5789 5790 5791 5791 5792 5792 5793 5793 5793 5794 5794 5795 5795 5796 5796 5796 5797 5798 5799 5800 5800 5801 5802 5803 5804 5805 5806 5807 5807 5808 5809 5810 5811 5812 5813 5814 5815 5816 5817 5818 5819 5820 5821 5821 5822 5823 5824 5825 5826 5827 5828 5829 5830 5831 5832 5832 5833 5834 5834 5835
5780 5780 5780 5780 5781 5781 5782 5782 5782 5782 5782 5782 5781 5781 5781 5782 5782 5783 5784 5785 5786 5786 5786 5786 5787 5787 5788 5788 5789 5790 5790 5791 5791 5791 5792 5792 5793 5793 5793 5794 5794 5794 5795 5796 5797 5797 5798 5798 5800 5801 5802 5803 5803 5804 5804 5805 5807 5808 5809 5810 5811 5812 5813 5814 5815 5815 5816 5817 5817 5818 5819 5820 5821 5822 5824 5825 5826 5827 5828 5829 5829 5830 5831 5832 5832
5778 5778 5778 5778 5779 5779 5780 5780 5781 5781 5781 5781 5781 5781 5780 5780 5781 5782 5782 5783 5784 5784 5784 5785 5785 5785 5786 5786 5787 5788 5789 5789 5789 5789 5789 5790 5790 5790 5791 5791 5792 5792 5792 5792 5793 5794 5795 5795 5797 5798 5799 5799 5799 5800 5800 5802 5803 5805 5807 5808 5809 5810 5810 5811 5812 5813 5813 5813 5814 5815 5816 5817 5818 5819 5820 5822 5823 5824 5825 5826 5826 5827 5828 5828 5829
5777 5777 5777 5777 5777 5778 5778 5778 5779 5779 5779 5779 5779 5779 5779 5779 5779 5780 5780 5781 5782 5782 5782 5783 5784 5783 5783 5784 5784 5785 5786 5787 5788 5788 5787 5787 5787 5788 5789 5789 5789 5789 5789 5789 5790 5791 5792 5793 5794 5795 5796 5796 5795 5795 5796 5798 5800 5802 5803 5804 5805 5807 5808 5809 5809 5810 5810 5810 5811 5812 5813 5814 5815 5816 5817 5818 5820 5821 5822 5822 5823 5824 5825 5825 5826
5776 5775 5775 5775 5775 5776 5776 5776 5777 5777 5777 5777 5778 5778 5777 5777 5777 5778 5778 5778 5779 5780 5780 5780 5781 5781 5781 5781 5782 5782 5784 5785 5786 5786 5786 5785 5785 5786 5786 5787 5787 5787 5787 5787 5788 5788 5789 5790 5791 5792 5792 5792 5791 5792 5792 5793 5795 5797 5798 5799 5800 5802 5803 5804 5805 5805 5806 5807 5809 5810 5810 5811 5812 5812 5813 5815 5816 5817 5818 5819 5820 5821 5821 5822 5823
5774 5774 5774 5773 5773 5774 5774 5774 5775 5775 5775 5776 5776 5776 5776 5775 5775 5776 5776 5776 5777 5777 5777 5778 5778 5779 5779 5779 5779 5780 5781 5782 5783 5783 5784 5784 5784 5784 5784 5785 5785 5785 5785 5786 5786 5786 5786 5787 5788 5788 5789 5789 5789 5789 5789 5789 5791 5792 5793 5794 5795 5797 5798 5799 5800 5801 5802 5804 5805 5805 5806 5807 5808 5809 5809 5811 5812 5813 5814 5815 5816 5817 5818 5819 5819
5773 5772 5772 5772 5772 5772 5772 5773 5773 5773 5774 5774 5774 5774 5774 5774 5773 5774 5774 5774 5774 5775 5775 5776 5776 5776 5777 5777 5778 5778 5778 5779 5780 5781 5782 5782 5782 5782 5782 5783 5783 5783 5783 5784 5784 5784 5784 5785 5785 5786 5786 5785 5786 5787 5786 5787 5788 5789 5790 5790 5792 5793 5794 5795 5796 5797 5799 5800 5801 5801 5801 5802 5803 5804 5806 5807 5808 5809 5810 5811 5812 5813 5814 5815 5815
5771 5771 5770 5770 5770 5770 5770 5771 5771 5771 5772 5772 5772 5772 5772 5772 5772 5772 5772 5772 5772 5773 5773 5774 5774 5774 5775 5776 5776 5776 5777 5777 5778 5778 5779 5780 5780 5780 5781 5781 5780 5781 5781 5782 5782 5782 5782 5782 5783 5784 5783 5782 5782 5783 5784 5785 5786 5785 5786 5786 5787 5789 5790 5792 5793 5793 5795 5796 5796 5797 5798 5799 5799 5801 5802 5802 5803 5805 5806 5807 5807 5808 5809 5810 5811
5769 5769 5769 5768 5768 5768 5769 5769 5769 5769 5769 5770 5770 5770 5770 5770 5770 5770 5770 5770 5771 5771 5771 5772 5772 5773 5773 5774 5774 5774 5775 5775 5775 5776 5776 5777 5777 5778 5779 5778 5777 5778 5779 5780 5780 5780 5780 5780 5781 5782 5781 5780 5780 5781 5781 5782 5782 5782 5783 5783 5784 5786 5786 5787 5788 5790 5792 5793 5793 5793 5794 5795 5796 5797 5797 5797 5800 5801 5802 5803 5804 5804 5805 5806 5807
5768 5767 5767 5767 5767 5767 5767 5767 5767 5767 5768 5768 5768 5768 5768 5768 5768 5768 5768 5768 5769 5769 5769 5770 5770 5771 5771 5772 5772 5772 5773 5772 5772 5773 5773 5773 5774 5775 5776 5775 5775 5776 5777 5778 5777 5777 5777 5778 5778 5778 5778 5778 5777 5778 5779 5780 5779 5780 5780 5780 5780 5782 5783 5784 5785 5787 5789 5790 5790 5790 5791 5791 5792 5793 5793 5793 5796 5797 5798 5799 5799 5800 5801 5802 5803
5766 5766 5766 5765 5765 5765 5765 5765 5765 5765 5766 5766 5766 5766 5766 5766 5766 5766 5766 5766 5767 5767 5767 5768 5768 5768 5769 5769 5770 5770 5770 5770 5770 5771 5770 5770 5770 5771 5772 5772 5772 5773 5774 5775 5774 5774 5775 5775 5775 5775 5775 5775 5774 5775 5776 5777 5777 5778 5777 5777 5777 5778 5780 5781 5782 5784 5785 5787 5787 5787 5787 5787 5787 5788 5789 5790 5792 5794 5794 5795 5796 5797 5798 5798 5799
5765 5765 5764 5764 5763 5763 5763 5763 5763 5763 5763 5763 5764 5764 5764 5764 5763 5763 5763 5764 5764 5764 5765 5765 5765 5766 5766 5767 5767 5767 5768 5767 5768 5768 5768 5767 5768 5769 5769 5769 5770 5770 5771 5771 5772 5772 5773 5773 5773 5772 5772 5772 5772 5772 5773 5774 5775 5775 5775 5774 5774 5774 5775 5777 5779 5780 5781 5782 5783 5783 5782 5783 5783 5784 5785 5787 5789 5790 5790 5791 5793 5793 5793 5794 5795
5763 5763 5763 5762 5762 5761 5761 5761 5761 5760 5760 5760 5761 5761 5761 5762 5762 5761 5761 5761 5761 5762 5762 5762 5763 5763 5764 5764 5764 5765 5765 5765 5765 5766 5766 5765 5766 5766 5767 5767 5767 5768 5768 5769 5769 5770 5770 5770 5770 5770 5770 5770 5770 5770 5771 5771 5772 5773 5773 5772 5772 5772 5773 5774 5775 5776 5777 5778 5779 5779 5779 5780 5780 5780 5782 5784 5786 5786 5786 5787 5788 5788 5789 5790 5791
5760 5761 5761 5761 5760 5760 5759 5759 5759 5758 5758 5758 5758 5759 5759 5759 5760 5760 5760 5760 5759 5759 5760 5760 5760 5760 5761 5761 5762 5762 5762 5763 5763 5763 5763 5763 5763 5764 5764 5764 5764 5765 5766 5766 5767 5767 5767 5767 5767 5768 5768 5768 5768 5768 5769 5769 5770 5771 5771 5771 5770 5770 5770 5771 5772 5772 5773 5775 5775 5775 5776 5777 5777 5778 5779 5781 5781 5781 5782 5783 5784 5785 5785 5786 5787
5758 5758 5758 5758 5758 5758 5758 5758 5757 5757 5756 5756 5756 5756 5757 5757 5758 5758 5758 5758 5758 5758 5758 5758 5758 5758 5759 5759 5760 5760 5760 5761 5761 5761 5761 5761 5761 5761 5761 5762 5762 5762 5762 5763 5764 5764 5765 5765 5765 5765 5765 5765 5765 5766 5766 5766 5767 5767 5768 5768 5768 5768 5768 5768 5769 5769 5770 5771 5772 5772 5773 5773 5773 5775 5775 5776 5777 5777 5778 5779 5780 5781 5782 5782 5783
5755 5755 5756 5756 5756 5757 5757 5757 5756 5755 5754 5754 5754 5754 5755 5755 5756 5756 5756 5756 5756 5756 5756 5756 5756 5756 5756 5757 5757 5758 5758 5758 5758 5759 5759 5758 5758 5759 5759 5759 5759 5759 5760 5760 5761 5761 5762 5762 5762 5762 5762 5763 5763 5763 5763 5763 5763 5763 5764 5764 5764 5765 5766 5766 5766 5766 5766 5767 5768 5768 5768 5768 5769 5770 5771 5771 5772 5773 5774 5775 5776 5777 5778 5778 5779
5752 5753 5753 5754 5755 5755 5755 5755 5754 5753 5753 5752 5752 5753 5753 5754 5754 5754 5754 5754 5755 5755 5755 5755 5755 5755 5755 5755 5755 5755 5756 5756 5756 5757 5757 5757 5757 5757 5757 5757 5757 5757 5757 5758 5758 5759 5759 5759 5759 5759 5759 5760 5760 5760 5760 5759 5759 5759 5760 5760 5761 5761 5762 5763 5763 5763 5763 5763 5763 5764 5764 5764 5764 5765 5766 5767 5767 5767 5768 5769 5771 5772 5773 5773 5774
5750 5750 5751 5752 5753 5753 5753 5752 5751 5751 5751 5751 5751 5751 5752 5752 5752 5753 5753 5753 5753 5753 5753 5753 5753 5753 5753 5753 5753 5753 5754 5754 5754 5755 5755 5755 5755 5755 5755 5755 5754 5755 5755 5755 5756 5756 5757 5757 5757 5757 5757 5757 5757 5757 5757 5757 5757 5757 5757 5757 5758 5758 5759 5759 5760 5760 5760 5760 5760 5760 5760 5760 5761 5761 5762 5762 5763 5763 5763 5764 5764 5766 5767 5768 5769
5747 5748 5748 5749 5750 5750 5750 5749 5749 5749 5749 5749 5749 5750 5750 5751 5751 5751 5751 5751 5751 5751 5751 5751 5752 5752 5752 5752 5752 5752 5752 5752 5752 5753 5753 5753 5753 5753 5753 5753 5752 5752 5753 5753 5753 5754 5754 5754 5754 5754 5754 5754 5754 5754 5754 5754 5754 5754 5754 5754 5755 5755 5756 5756 5757 5757 5757 5757 5757 5757 5757 5757 5757 5757 5758 5758 5759 5759 5759 5760 5760 5761 5762 5762 5763
5745 5746 5746 5747 5747 5747 5747 5747 5747 5747 5747 5747 5747 5747 5748 5749 5749 5750 5750 5750 5750 5750 5750 5750 5750 5750 5750 5750 5750 5750 5750 5750 5750 5750 5751 5751 5751 5751 5751 5751 5750 5750 5750 5750 5750 5750 5751 5751 5751 5751 5751 5751 5751 5751 5751 5751 5752 5752 5752 5752 5752 5753 5753 5753 5753 5754 5754 5754 5754 5754 5754 5754 5754 5754 5754 5754 5755 5755 5756 5756 5757 5757 5757 5758 5758
5743 5744 5744 5745 5745 5745 5745 5745 5745 5745 5745 5745 5745 5745 5746 5746 5747 5747 5748 5748 5748 5748 5748 5748 5748 5748 5749 5749 5749 5749 5748 5748 5748 5748 5748 5749 5749 5749 5749 5749 5748 5748 5748 5748 5748 5748 5748 5748 5749 5749 5749 5749 5749 5749 5749 5749 5749 5749 5749 5750 5750 5750 5750 5750 5751 5751 5751 5751 5751 5751 5751 5751 5751 5751 5751 5751 5751 5752 5752 5753 5753 5754 5754 5754 5754
5741 5742 5742 5742 5743 5742 5743 5742 5742 5743 5743 5743 5743 5744 5744 5744 5745 5745 5745 5746 5746 5746 5746 5746 5746 5746 5746 5747 5747 5747 5746 5746 5746 5746 5746 5746 5747 5747 5747 5747 5747 5746 5746 5746 5746 5746 5746 5746 5746 5746 5746 5746 5746 5746 5746 5746 5746 5746 5746 5747 5747 5747 5747 5748 5748 5748 5748 5748 5748 5748 5748 5748 5748 5748 5748 5748 5748 5748 5749 5749 5750 5750 5750 5750 5750
5739 5739 5740 5740 5741 5740 5740 5740 5740 5741 5741 5741 5742 5742 5742 5742 5742 5743 5743 5743 5743 5744 5744 5744 5744 5743 5743 5744 5744 5744 5744 5744 5744 5744 5744 5744 5744 5744 5745 5745 5745 5745 5744 5744 5744 5744 5744 5744 5744 5744 5744 5744 5744 5744 5744 5744 5744 5744 5744 5744 5744 5744 5744 5744 5745 5745 5745 5746 5746 5746 5746 5746 5746 5746 5746 5745 5745 5745 5745 5746 5746 5746 5747 5747 5747
5736 5736 5737 5738 5738 5738 5738 5738 5738 5738 5739 5739 5739 5739 5740 5740 5740 5740 5741 5741 5741 5741 5741 5741 5741 5741 5741 5741 5741 5741 5741 5741 5742 5742 5742 5742 5742 5742 5742 5742 5742 5742 5742 5742 5742 5742 5742 5742 5741 5741 5741 5741 5741 5741 5741 5741 5741 5741 5741 5741 5740 5740 5741 5741 5741 5742 5742 5742 5742 5743 5743 5743 5742 5742 5742 5742 5742 5742 5742 5742 5742 5743 5743 5743 5743
5732 5733 5734 5734 5735 5735 5735 5735 5735 5735 5736 5736 5736 5737 5737 5737 5737 5738 5738 5738 5738 5739 5739 5739 5739 5739 5739 5739 5739 5739 5739 5739 5739 5739 5739 5739 5739 5739 5739 5739 5739 5739 5739 5739 5739 5739 5739 5739 5739 5739 5738 5739 5738 5738 5738 5738 5738 5738 5738 5738 5737 5737 5737 5737 5737 5737 5738 5738 5738 5738 5739 5739 5739 5739 5739 5739 5739 5739 5739 5739 5739 5739 5739 5739 5740
5729 5730 5730 5731 5732 5732 5732 5733 5733 5733 5733 5733 5734 5734 5734 5734 5734 5735 5735 5735 5735 5735 5735 5736 5736 5736 5736 5736 5736 5736 5736 5736 5736 5736 5736 5736 5736 5736 5736 5736 5736 5736 5736 5736 5736 5736 5736 5736 5736 5736 5736 5736 5736 5735 5735 5735 5735 5735 5735 5735 5734 5734 5734 5734 5734 5734 5734 5734 5734 5734 5734 5734 5734 5735 5734 5735 5735 5735 5735 5735 5735 5735 5735 5735 5736
5727 5727 5728 5728 5729 5728 5729 5730 5730 5730 5730 5730 5731 5731 5730 5731 5731 5732 5732 5732 5732 5732 5732 5732 5733 5733 5734 5734 5733 5733 5733 5733 5733 5733 5733 5733 5733 5733 5733 5733 5733 5733 5733 5733 5733 5733 5733 5733 5733 5733 5733 5733 5733 5733 5732 5732 5732 5732 5731 5731 5731 5731 5730 5730 5729 5730 5730 5730 5730 5730 5730 5730 5730 5730 5730 5730 5730 5730 5730 5731 5731 5731 5731 5731 5731
5723 5724 5725 5725 5726 5725 5726 5727 5727 5727 5727 5727 5728 5728 5727 5727 5728 5728 5729 5729 5729 5729 5729 5729 5729 5730 5730 5730 5730 5730 5730 5730 5730 5730 5730 5730 5730 5730 5730 5730 5730 5730 5730 5730 5730 5730 5730 5730 5730 5730 5730 5730 5730 5729 5729 5729 5729 5728 5728 5728 5727 5727 5727 5726 5725 5725 5725 5725 5726 5726 5725 5725 5725 5725 5725 5725 5725 5726 5726 5726 5726 5726 5726 5726 5726
5720 5721 5721 5722 5722 5722 5723 5723 5723 5723 5724 5724 5724 5724 5724 5724 5724 5724 5725 5726 5726 5726 5725 5725 5726 5726 5726 5726 5726 5726 5726 5726 5726 5726 5727 5727 5727 5727 5727 5726 5726 5726 5726 5726 5726 5726 5726 5726 5726 5726 5726 5725 5725 5725 5725 5725 5725 5725 5725 5724 5724 5723 5723 5722 5722 5721 5721 5721 5721 5721 5720 5720 5720 5720 5720 5720 5720 5720 5721 5721 5721 5721 5721 5721 5721
5717 5718 5718 5719 5719 5719 5719 5719 5720 5720 5720 5720 5720 5720 5720 5720 5720 5721 5721 5722 5722 5722 5721 5721 5721 5721 5721 5721 5721 5721 5722 5722 5722 5722 5722 5723 5723 5723 5723 5723 5723 5723 5722 5722 5722 5722 5722 5722 5722 5721 5721 5721 5721 5721 5721 5720 5720 5720 5720 5720 5719 5719 5718 5718 5716 5716 5716 5716 5716 5716 5715 5715 5715 5714 5714 5714 5714 5715 5715 5715 5715 5715 5715 5716 5716
5713 5714 5714 5715 5715 5715 5714 5714 5715 5715 5715 5715 5716 5716 5716 5716 5716 5717 5717 5717 5717 5717 5717 5717 5717 5716 5717 5717 5717 5717 5717 5717 5717 5717 5717 5717 5718 5718 5718 5718 5718 5718 5718 5718 5718 5718 5718 5717 5717 5716 5716 5715 5715 5715 5715 5715 5715 5714 5714 5714 5713 5713 5713 5712 5711 5710 5709 5709 5711 5711 5710 5708 5709 5709 5708 5708 5708 5708 5709 5709 5709 5709 5709 5710 5710
5708 5709 5709 5710 5710 5710 5710 5710 5710 5710 5711 5711 5711 5711 5712 5712 5712 5712 5713 5713 5712 5712 5712 5712 5712 5712 5712 5712 5712 5711 5711 5711 5711 5711 5711 5711 5711 5711 5712 5712 5713 5713 5713 5713 5712 5712 5712 5712 5711 5711 5710 5709 5709 5709 5709 5708 5708 5708 5707 5707 5707 5706 5706 5706 5706 5704 5702 5702 5704 5705 5704 5702 5701 5703 5703 5702 5701 5701 5701 5701 5701 5702 5702 5703 5703
5703 5703 5704 5704 5705 5706 5706 5706 5705 5705 5706 5706 5706 5706 5707 5707 5708 5708 5708 5707 5707 5707 5707 5706 5706 5706 5706 5706 5706 5706 5706 5706 5706 5705 5705 5705 5705 5705 5705 5705 5706 5706 5706 5706 5706 5706 5706 5706 5705 5705 5704 5703 5702 5701 5701 5701 5701 5700 5700 5699 5699 5699 5698 5698 5699 5698 5695 5694 5695 5698 5698 5695 5693 5695 5696 5695 5694 5695 5694 5694 5694 5694 5694 5695 5695
5697 5698 5698 5699 5699 5699 5700 5700 5700 5700 5700 5701 5701 5701 5701 5702 5702 5702 5702 5702 5702 5702 5701 5701 5701 5701 5701 5700 5700 5700 5700 5700 5699 5699 5698 5698 5698 5697 5697 5698 5698 5698 5698 5698 5698 5698 5699 5699 5698 5698 5697 5695 5694 5694 5693 5693 5692 5692 5692 5691 5690 5690 5690 5690 5691 5690 5688 5687 5688 5689 5691 5689 5686 5687 5688 5686 5686 5687 5686 5686 5687 5686 5686 5687 5687
5691 5692 5692 5692 5692 5692 5692 5693 5693 5694 5695 5695 5695 5696 5696 5696 5696 5696 5696 5696 5696 5696 5696 5696 5696 5695 5695 5695 5694 5694 5693 5693 5693 5692 5692 5691 5690 5690 5690 5690 5690 5690 5690 5690 5690 5690 5690 5690 5691 5690 5689 5687 5686 5686 5686 5685 5684 5684 5683 5683 5682 5682 5682 5682 5682 5681 5680 5679 5679 5681 5683 5682 5679 5680 5681 5678 5678 5678 5677 5678 5678 5678 5678 5679 5679
5684 5684 5685 5685 5685 5685 5686 5686 5687 5687 5688 5689 5689 5690 5690 5690 5690 5690 5690 5690 5690 5690 5689 5689 5689 5689 5689 5689 5688 5688 5687 5686 5686 5685 5685 5684 5684 5683 5683 5683 5682 5682 5682 5681 5681 5682 5682 5682 5682 5681 5680 5679 5679 5679 5678 5677 5676 5675 5675 5675 5674 5674 5674 5674 5673 5672 5671 5670 5670 5671 5673 5673 5672 5672 5673 5671 5670 5670 5669 5668 5669 5668 5669 5669 5670
5676 5677 5677 5678 5678 5678 5679 5679 5680 5681 5681 5682 5682 5683 5683 5683 5683 5683 5683 5683 5683 5683 5683 5682 5682 5682 5682 5682 5682 5681 5681 5680 5679 5679 5678 5678 5678 5677 5676 5676 5675 5675 5674 5674 5674 5674 5674 5674 5673 5673 5672 5672 5671 5670 5669 5668 5668 5667 5667 5666 5666 5665 5666 5666 5665 5664 5663 5662 5661 5660 5662 5664 5662 5662 5663 5663 5662 5661 5660 5659 5659 5658 5659 5659 5660
5669 5669 5670 5670 5671 5671 5671 5672 5672 5673 5674 5675 5675 5676 5676 5676 5676 5677 5677 5677 5676 5676 5676 5676 5675 5675 5675 5675 5674 5674 5674 5673 5673 5672 5672 5672 5671 5670 5670 5669 5669 5668 5667 5667 5667 5666 5666 5665 5665 5665 5664 5664 5663 5662 5661 5660 5659 5658 5657 5657 5656 5656 5656 5656 5656 5655 5654 5653 5652 5650 5651 5653 5652 5651 5652 5653 5653 5653 5651 5650 5649 5649 5649 5649 5650
5662 5662 5663 5663 5664 5664 5665 5665 5666 5666 5667 5668 5668 5669 5669 5669 5669 5670 5670 5670 5669 5669 5669 5669 5669 5668 5668 5668 5667 5667 5666 5666 5666 5665 5665 5665 5664 5664 5663 5663 5662 5661 5661 5660 5660 5659 5658 5658 5657 5657 5656 5655 5654 5653 5652 5650 5649 5648 5647 5647 5646 5646 5645 5645 5644 5644 5644 5644 5642 5640 5641 5642 5641 5640 5640 5641 5643 5643 5642 5640 5640 5639 5639 5639 5640
5656 5657 5657 5657 5658 5658 5659 5659 5660 5660 5661 5661 5662 5662 5662 5662 5662 5662 5662 5662 5662 5662 5661 5661 5661 5661 5661 5660 5660 5660 5659 5659 5659 5658 5658 5658 5657 5657 5656 5656 5655 5655 5654 5653 5652 5652 5651 5650 5649 5648 5647 5646 5645 5643 5642 5641 5639 5638 5637 5637 5636 5635 5635 5634 5633 5633 5634 5634 5631 5629 5630 5632 5631 5629 5628 5629 5631 5633 5632 5631 5631 5630 5630 5630 5630